[[{"header":{"parameterUnit":"m.s-1","parameterCategory":1,"la1":30.2991,"la2":30.254,"lo1":-89.0895,"lo2":-89.0444,"dy":0.0017,"dx":0.0017,"nx":28,"ny":28,"refTime":"2024-11-23T03:00:00:Z","depth":0,"parameterNumber":2,"parameterNumberName":"U-component_of_WINDS"},"data":[0,0,0,0,0,0,0,0,0,0,0,0,0,0,0,0,0,0,0,0,0,0,0,0,0,0,0,0,0,0,0,0,0,0,0,0,0,0,0,0,0,0,0,0,0,0,0,0,0,0,0,0,0,0,0,0,0,0,0.4302,0.4303,0,0.4375,0.4376,0.4377,0.443,0.443,0.4431,0.4431,0.4504,0.4506,0.4507,0,0,0,0,0,0,0,0,0,0,0,0,0,0.4208,0.4209,0.4302,0.4303,0.4304,0.4375,0.4376,0.4377,0.443,0.443,0.4431,0.4431,0.4504,0.4506,0.4507,0,0,0,0,0,0,0,0,0,0,0,0,0,0.4261,0.421,0.4302,0.4339,0.4343,0.4375,0.4376,0.4377,0.4429,0.443,0.4431,0.4431,0.4503,0.4505,0.4508,0.4508,0,0,0.4515,0.4516,0,0,0,0,0,0,0,0,0.4258,0.4265,0.4332,0.4336,0.4341,0.4394,0.437,0.4421,0.4429,0.4397,0.4431,0.4432,0.4467,0.4472,0.4484,0.4512,0.4515,0.4515,0.4516,0.4517,0.4518,0,0,0,0,0,0,0,0.4255,0.4262,0.4331,0.4333,0.4339,0.4351,0.436,0.4379,0.4427,0.4399,0.4403,0.4411,0.4469,0.4482,0.4486,0.4516,0.4515,0.4517,0.4518,0.4519,0.4547,0.4546,0,0,0,0,0,0,0.4245,0.4259,0.4329,0.4333,0.4301,0.4353,0.4362,0.4376,0.4427,0.4435,0.4411,0.4414,0.4478,0.4484,0.4489,0.4493,0.4517,0.4519,0.4521,0.4548,0.4547,0.4546,0,0,0,0,0,0,0.4243,0.4251,0.4326,0.4297,0.4307,0.4354,0.4369,0.4377,0.439,0.4436,0.4444,0.4415,0.4479,0.4486,0.4503,0.4496,0.452,0.4522,0.4548,0.4547,0.4547,0.45,0,0,0,0,0,0,0.424,0.425,0.4251,0.4297,0.4309,0.4338,0.4369,0.4378,0.4394,0.4398,0.4442,0.445,0.448,0.4499,0.4505,0.45,0.4524,0.4549,0.4548,0.4547,0.4503,0.4498,0.4494,0,0,0,0,0,0.4237,0.4235,0.425,0.4259,0.4311,0.4338,0.4345,0.438,0.4393,0.4394,0.4424,0.4448,0.4496,0.4501,0.4508,0.4503,0.455,0.4548,0.4547,0.4505,0.4499,0.4494,0,0,0,0,0,0,0.4186,0.4241,0.4259,0.4272,0.43,0.4347,0.4349,0.4373,0.4397,0.44,0.4442,0.4451,0.4464,0.4485,0.4489,0.4506,0.4526,0.4526,0.4491,0.4486,0.4482,0.4476,0.4526,0,0,0,0,0,0.4177,0.4194,0.4241,0.4248,0.4261,0.4303,0.4316,0.434,0.4371,0.4382,0.4413,0.4441,0.4463,0.4476,0.4498,0.4506,0.4516,0.4507,0.4502,0.4498,0.4498,0.4503,0.4499,0.4542,0.4542,0.4542,0,0,0.4157,0.4189,0.4198,0.4239,0.4263,0.428,0.4312,0.4329,0.4342,0.4385,0.4403,0.4426,0.4461,0.4473,0.448,0.4491,0.4488,0.4496,0.4493,0.4495,0.4502,0.4497,0.4494,0.4541,0.4541,0.4541,0,0,0.4129,0.4156,0.4164,0.4188,0.4225,0.4253,0.4255,0.4298,0.4315,0.4334,0.4367,0.4383,0.4419,0.4442,0.4458,0.444,0.4464,0.4446,0.4423,0.4428,0.4425,0.4422,0.4415,0.4412,0.4446,0.4445,0.4445,0,0.41,0.4127,0.4165,0.418,0.4197,0.4238,0.4247,0.4268,0.431,0.432,0.4332,0.4379,0.4405,0.4423,0.4419,0.4431,0.4434,0.4441,0.4422,0.442,0.4418,0.4412,0.4409,0.4443,0.4443,0.4444,0.4444,0,0.4089,0.4108,0.411,0.415,0.4167,0.4179,0.4219,0.4232,0.4255,0.4281,0.43,0.4332,0.4362,0.4368,0.4391,0.439,0.4396,0.4415,0.4435,0.4411,0.4406,0.4404,0.444,0.4441,0.4441,0.4442,0,0,0.4031,0.4093,0.4093,0.4111,0.4155,0.417,0.4183,0.4213,0.4223,0.4251,0.4263,0.4293,0.431,0.4329,0.4355,0.4359,0.4342,0.4378,0.4379,0.437,0.4343,0.4328,0.4325,0.4359,0.4358,0.4358,0.434,0,0.401,0.4037,0.4072,0.4087,0.4104,0.4143,0.4155,0.4183,0.4208,0.4226,0.4254,0.4274,0.4296,0.4307,0.4314,0.4343,0.4338,0.4345,0.437,0.437,0.4359,0.4323,0.4307,0.4288,0.4338,0.4338,0.4338,0,0.3989,0.4015,0.4032,0.4074,0.4083,0.4093,0.4123,0.414,0.4172,0.419,0.4211,0.4239,0.4255,0.4274,0.4296,0.43,0.4313,0.4329,0.4329,0.4332,0.4352,0.4324,0.4283,0.428,0.4335,0.4336,0.4336,0,0.3945,0.3984,0.3999,0.4014,0.4064,0.407,0.4091,0.4124,0.4139,0.4166,0.4176,0.4203,0.4218,0.4238,0.4273,0.4284,0.4292,0.4313,0.4306,0.4305,0.4306,0.4305,0.4266,0.4314,0.4315,0.4315,0.4315,0,0.3917,0.3926,0.398,0.3989,0.3999,0.404,0.4049,0.4073,0.4103,0.4117,0.4152,0.4165,0.421,0.4228,0.4255,0.4269,0.4276,0.4291,0.4298,0.4287,0.4285,0.4295,0.4297,0.4314,0.4314,0.4314,0.4314,0,0.3869,0.3906,0.3925,0.3971,0.3982,0.3988,0.4027,0.4038,0.4065,0.4083,0.4089,0.4132,0.4155,0.4191,0.4225,0.4243,0.4253,0.4265,0.4242,0.4246,0.4237,0.4237,0.4202,0.4199,0.425,0.4249,0.4249,0,0.3849,0.3856,0.3903,0.3916,0.3936,0.3955,0.3971,0.4011,0.4026,0.4064,0.407,0.4095,0.4118,0.4153,0.4187,0.4213,0.4225,0.4211,0.4229,0.4219,0.4225,0.4224,0.4224,0.4207,0.4206,0.4206,0.4205,0,0.3809,0.3827,0.3849,0.3877,0.3896,0.392,0.3946,0.3954,0.3999,0.4015,0.4039,0.4056,0.4091,0.4116,0.4147,0.4168,0.4194,0.4199,0.4199,0.4188,0.4174,0.4181,0.423,0.42,0.42,0.4201,0.4201,0.4201,0.3774,0.3783,0.3817,0.384,0.3864,0.3888,0.3899,0.3929,0.3949,0.3981,0.4003,0.4026,0.4058,0.4102,0.4123,0.4141,0.4152,0.4152,0.4151,0.4151,0.4146,0.4172,0.4146,0.4147,0.4147,0.4147,0.4147,0,0.3736,0.376,0.3781,0.3816,0.3835,0.3858,0.3888,0.3902,0.3921,0.395,0.3971,0.3999,0.4024,0.406,0.4087,0.4094,0.4107,0.41,0.41,0.4104,0.4135,0.4132,0.409,0.409,0.409,0.409,0.409,0.409,0.3718,0.3733,0.3755,0.3783,0.3807,0.383,0.3845,0.3866,0.3889,0.3919,0.3939,0.3963,0.3994,0.4024,0.4048,0.4058,0.4066,0.4056,0.4069,0.4097,0.4102,0.4107,0.4105,0.4057,0.4057,0.4037,0.4037,0.4036]},{"header":{"parameterUnit":"m.s-1","parameterCategory":1,"la1":30.2991,"la2":30.254,"lo1":-89.0895,"lo2":-89.0444,"dy":0.0017,"dx":0.0017,"nx":28,"ny":28,"refTime":"2024-11-23T03:00:00:Z","depth":0,"parameterNumber":3,"parameterNumberName":"V-component_of_WINDS"},"data":[0,0,0,0,0,0,0,0,0,0,0,0,0,0,0,0,0,0,0,0,0,0,0,0,0,0,0,0,0,0,0,0,0,0,0,0,0,0,0,0,0,0,0,0,0,0,0,0,0,0,0,0,0,0,0,0,0,0,0.2375,0.2375,0,0.2334,0.2334,0.2333,0.231,0.231,0.231,0.231,0.2267,0.2265,0.2264,0,0,0,0,0,0,0,0,0,0,0,0,0,0.2433,0.2432,0.2375,0.2375,0.2374,0.2334,0.2334,0.2333,0.231,0.231,0.231,0.231,0.2267,0.2266,0.2264,0,0,0,0,0,0,0,0,0,0,0,0,0,0.2401,0.2431,0.2375,0.2358,0.2356,0.2334,0.2334,0.2333,0.231,0.231,0.231,0.231,0.2267,0.2266,0.2264,0.2256,0,0,0.2259,0.2258,0,0,0,0,0,0,0,0,0.2403,0.2399,0.2361,0.2359,0.2357,0.2327,0.2338,0.2307,0.231,0.2327,0.231,0.231,0.2287,0.2283,0.2276,0.2254,0.2253,0.2259,0.2258,0.2257,0.2257,0,0,0,0,0,0,0,0.2405,0.2401,0.2359,0.236,0.2358,0.2352,0.2347,0.2332,0.2308,0.2326,0.2324,0.232,0.2286,0.2278,0.2275,0.2252,0.2259,0.2258,0.2257,0.2256,0.2222,0.2222,0,0,0,0,0,0,0.241,0.2403,0.236,0.2358,0.238,0.2351,0.2346,0.2337,0.2308,0.2304,0.232,0.2319,0.228,0.2277,0.2273,0.2262,0.2257,0.2256,0.2255,0.2222,0.2222,0.2222,0,0,0,0,0,0,0.2412,0.2407,0.2362,0.238,0.2374,0.235,0.234,0.2336,0.2328,0.2304,0.2299,0.2316,0.228,0.2275,0.2261,0.226,0.2255,0.2254,0.2222,0.2222,0.2222,0.2241,0,0,0,0,0,0,0.2413,0.2407,0.2404,0.238,0.2373,0.2351,0.234,0.2335,0.2326,0.2324,0.2299,0.2295,0.228,0.2263,0.2259,0.2258,0.2252,0.2222,0.2222,0.2222,0.224,0.2241,0.2242,0,0,0,0,0,0.2416,0.2411,0.2404,0.2399,0.2369,0.2351,0.2347,0.233,0.2326,0.2322,0.2307,0.2296,0.2261,0.2262,0.2257,0.2256,0.2222,0.2222,0.2222,0.2239,0.2241,0.2242,0,0,0,0,0,0,0.2436,0.2408,0.24,0.2387,0.2372,0.2347,0.2342,0.2332,0.2317,0.2316,0.2295,0.229,0.2277,0.2265,0.2266,0.2247,0.224,0.2239,0.2255,0.2257,0.2258,0.2261,0.2251,0,0,0,0,0,0.2439,0.2427,0.2403,0.2394,0.2387,0.2366,0.2357,0.2346,0.2329,0.2322,0.2305,0.2288,0.2274,0.2264,0.225,0.2238,0.2232,0.2234,0.2236,0.2237,0.2236,0.2229,0.223,0.2222,0.2222,0.2222,0,0,0.2445,0.2428,0.2422,0.2398,0.2384,0.2372,0.236,0.2348,0.2339,0.232,0.2305,0.2292,0.2272,0.2259,0.2252,0.2248,0.2237,0.2237,0.2238,0.2237,0.223,0.223,0.2231,0.2222,0.2222,0.2222,0,0,0.245,0.2436,0.2427,0.2414,0.2394,0.238,0.2378,0.2355,0.2346,0.2331,0.2316,0.2305,0.228,0.2266,0.2256,0.2256,0.2246,0.2252,0.2259,0.2252,0.2253,0.2253,0.2253,0.2253,0.2252,0.2252,0.2252,0,0.246,0.2442,0.2424,0.2413,0.2403,0.2385,0.2376,0.2364,0.234,0.2333,0.2329,0.2298,0.2283,0.2267,0.2267,0.2259,0.2256,0.2255,0.2254,0.2254,0.2255,0.2254,0.2254,0.2252,0.2252,0.2252,0.2252,0,0.2455,0.2442,0.2438,0.2416,0.2405,0.2395,0.2375,0.2366,0.2356,0.2342,0.2327,0.2309,0.229,0.2285,0.2275,0.2267,0.2266,0.2258,0.2251,0.2256,0.2256,0.2256,0.2254,0.2253,0.2253,0.2253,0,0,0.2471,0.244,0.2438,0.2428,0.2405,0.2394,0.2383,0.2366,0.2358,0.2342,0.2332,0.2312,0.2305,0.2294,0.2281,0.2275,0.2277,0.2268,0.2268,0.2271,0.2267,0.2273,0.2273,0.2269,0.2269,0.2269,0.2269,0,0.2473,0.2453,0.2437,0.2422,0.2411,0.2394,0.2384,0.2369,0.2356,0.2344,0.2329,0.2315,0.2307,0.23,0.2293,0.2278,0.2276,0.2278,0.226,0.2259,0.2265,0.2273,0.2279,0.2279,0.2269,0.2269,0.2268,0,0.2472,0.2457,0.2442,0.242,0.2414,0.2406,0.2388,0.2377,0.2359,0.235,0.2337,0.2324,0.2312,0.2306,0.2288,0.229,0.2281,0.2273,0.2272,0.227,0.2264,0.2271,0.2279,0.2279,0.2268,0.2268,0.2268,0,0.2486,0.2462,0.245,0.2441,0.2415,0.241,0.2399,0.238,0.2371,0.2355,0.2349,0.2332,0.2322,0.2309,0.2292,0.229,0.2276,0.2269,0.2268,0.2268,0.2265,0.2266,0.2273,0.226,0.226,0.226,0.226,0,0.2489,0.248,0.2455,0.2448,0.2437,0.2419,0.2409,0.2396,0.238,0.237,0.2354,0.2345,0.2322,0.231,0.2296,0.2284,0.2279,0.2272,0.2268,0.2273,0.2274,0.2267,0.2267,0.226,0.226,0.226,0.226,0,0.2502,0.2485,0.2471,0.2448,0.2442,0.2435,0.2415,0.2407,0.2393,0.238,0.2376,0.2354,0.2339,0.232,0.2299,0.229,0.2278,0.2273,0.2284,0.2282,0.2282,0.2282,0.2285,0.2284,0.2272,0.2273,0.2273,0,0.2506,0.2499,0.2475,0.2467,0.2456,0.2444,0.2434,0.2415,0.2406,0.2385,0.2379,0.2363,0.2348,0.2324,0.2307,0.229,0.2284,0.2286,0.2281,0.2287,0.2284,0.2285,0.2284,0.2287,0.2288,0.2288,0.2288,0,0.2513,0.2505,0.2492,0.2476,0.2465,0.2451,0.2436,0.2431,0.2409,0.2399,0.2383,0.2372,0.2351,0.2334,0.2316,0.2303,0.2292,0.229,0.2288,0.2293,0.23,0.2296,0.2288,0.229,0.2289,0.2289,0.2289,0.2289,0.2522,0.2515,0.2497,0.2483,0.247,0.2457,0.2448,0.2434,0.242,0.2401,0.2391,0.2376,0.2358,0.2331,0.232,0.2307,0.2303,0.2301,0.2301,0.2301,0.2302,0.2303,0.2304,0.2304,0.2303,0.2303,0.2303,0,0.2528,0.2516,0.2503,0.2484,0.2472,0.2463,0.2447,0.2438,0.2425,0.2409,0.2395,0.2377,0.2362,0.2343,0.2326,0.2319,0.2313,0.2315,0.2315,0.2313,0.2307,0.231,0.232,0.232,0.232,0.232,0.232,0.232,0.2531,0.2518,0.2508,0.2489,0.2477,0.2462,0.2454,0.2441,0.2429,0.241,0.2397,0.2385,0.2367,0.2349,0.2334,0.2329,0.2323,0.2326,0.232,0.2315,0.2313,0.2312,0.2314,0.2325,0.2325,0.2326,0.2326,0.2326]}]]